Powrót do katalogu

CZ-6A DEB

AktywnyPO
NORAD 54496·DEBRIS·🇨🇳 China

Wystrzelony Nov 11, 2022 z Taiyuan Satellite Launch Center

Loading…

Następne Przeloty (najbliższe 24 godziny)

TLE

ŚwieżeSource: Space-Track

Epoka: Sep 14, 2026, 06:32 UTC

1 54496U 22151HY  26257.27268947  .00004007  00000-0  11004-2 0  9995
2 54496  99.1237   7.7980 0114878 207.5968 151.9092 14.43819780200484

Śledź CZ-6A DEB w czasie rzeczywistym z AllMySat

Download on the App Store